[[{"header":{"parameterUnit":"m.s-1","parameterCategory":1,"la1":30.2991,"la2":30.254,"lo1":-89.0895,"lo2":-89.0444,"dy":0.0017,"dx":0.0017,"nx":28,"ny":28,"refTime":"2024-12-03T09:00:00:Z","depth":0,"parameterNumber":2,"parameterNumberName":"U-component_of_WINDS"},"data":[0,0,0,0,0,0,0,0,0,0,0,0,0,0,0,0,0,0,0,0,0,0,0,0,0,0,0,0,0,0,0,0,0,0,0,0,0,0,0,0,0,0,0,0,0,0,0,0,0,0,0,0,0,0,0,0,0,0,0.4753,0.4752,0,0.4728,0.4728,0.4728,0.4719,0.4719,0.4719,0.4719,0.4691,0.4691,0.469,0,0,0,0,0,0,0,0,0,0,0,0,0,0.479,0.479,0.4753,0.4752,0.4752,0.4728,0.4728,0.4728,0.4719,0.4719,0.4719,0.4719,0.4692,0.4691,0.469,0,0,0,0,0,0,0,0,0,0,0,0,0,0.4771,0.479,0.4753,0.4745,0.4744,0.4728,0.4728,0.4727,0.4719,0.4719,0.4719,0.4719,0.4692,0.4691,0.469,0.4679,0,0,0.4686,0.4685,0,0,0,0,0,0,0,0,0.4772,0.4769,0.4746,0.4745,0.4744,0.4727,0.4731,0.4711,0.4719,0.4728,0.4719,0.4719,0.4703,0.4701,0.4696,0.4678,0.4677,0.4686,0.4685,0.4684,0.4684,0,0,0,0,0,0,0,0.4773,0.477,0.4743,0.4746,0.4745,0.4742,0.474,0.4727,0.4715,0.4727,0.4727,0.4724,0.4702,0.4697,0.4695,0.4676,0.4686,0.4685,0.4684,0.4683,0.4649,0.4649,0,0,0,0,0,0,0.4776,0.4772,0.4744,0.4742,0.4759,0.4741,0.4738,0.4732,0.4715,0.4713,0.4724,0.4724,0.4699,0.4696,0.4694,0.4681,0.4684,0.4683,0.4682,0.465,0.4649,0.4649,0,0,0,0,0,0,0.4777,0.4774,0.4745,0.4757,0.4753,0.4741,0.4734,0.4732,0.4726,0.4713,0.471,0.4721,0.4699,0.4696,0.4683,0.468,0.4683,0.4682,0.465,0.465,0.4649,0.4655,0,0,0,0,0,0,0.4778,0.4774,0.477,0.4757,0.4752,0.4735,0.4734,0.4731,0.4725,0.4724,0.4709,0.4707,0.4699,0.4685,0.4682,0.4678,0.4681,0.465,0.465,0.4649,0.4655,0.4655,0.4655,0,0,0,0,0,0.478,0.4772,0.477,0.4767,0.4747,0.4735,0.4732,0.4724,0.4724,0.472,0.4712,0.4707,0.4681,0.4684,0.468,0.4676,0.465,0.465,0.4649,0.4655,0.4655,0.4655,0,0,0,0,0,0,0.4784,0.477,0.4768,0.4756,0.4747,0.4733,0.4727,0.4724,0.4714,0.4714,0.4703,0.47,0.4689,0.4681,0.4685,0.4666,0.4665,0.4664,0.4671,0.4671,0.4671,0.4672,0.468,0,0,0,0,0,0.4784,0.4775,0.4763,0.4754,0.475,0.474,0.4734,0.4729,0.4718,0.4714,0.4704,0.4694,0.4684,0.4677,0.4666,0.4654,0.4651,0.465,0.465,0.465,0.4649,0.4643,0.4642,0.4648,0.4648,0.4648,0,0,0.4783,0.4774,0.4769,0.4755,0.4747,0.4738,0.4736,0.4726,0.472,0.4712,0.47,0.4693,0.4681,0.4669,0.4663,0.4662,0.4647,0.4649,0.465,0.4648,0.4642,0.4642,0.4641,0.4648,0.4648,0.4648,0,0,0.4776,0.4769,0.4761,0.4754,0.4743,0.4736,0.4735,0.4722,0.4717,0.4706,0.47,0.4692,0.4674,0.4666,0.4659,0.4652,0.4648,0.4649,0.4648,0.4642,0.4642,0.4642,0.4639,0.4638,0.4648,0.4648,0.4648,0,0.4776,0.4763,0.4757,0.4748,0.4742,0.4736,0.4728,0.4721,0.4707,0.4702,0.4702,0.4681,0.4672,0.4659,0.4657,0.4652,0.4649,0.465,0.4643,0.4642,0.4642,0.4639,0.4638,0.4648,0.4648,0.4648,0.4648,0,0.4764,0.4755,0.4749,0.4737,0.4731,0.4722,0.4714,0.4708,0.4704,0.4698,0.4686,0.4676,0.4664,0.4661,0.4656,0.4647,0.4647,0.4645,0.4644,0.4641,0.4639,0.4638,0.4649,0.4649,0.4649,0.4648,0,0,0.4758,0.4744,0.4742,0.4737,0.4725,0.4718,0.4709,0.4699,0.4694,0.4685,0.4677,0.4664,0.4662,0.4655,0.465,0.4645,0.464,0.4643,0.4643,0.4643,0.463,0.4631,0.463,0.4638,0.4638,0.4637,0.4631,0,0.475,0.4735,0.4729,0.4717,0.4709,0.4705,0.4697,0.4689,0.4684,0.4676,0.4669,0.466,0.4659,0.4655,0.465,0.4642,0.4637,0.4642,0.463,0.463,0.4633,0.4629,0.4629,0.4624,0.463,0.463,0.463,0,0.4738,0.473,0.4717,0.4708,0.4704,0.4698,0.4689,0.4681,0.4672,0.4669,0.4662,0.4657,0.4648,0.4649,0.4636,0.464,0.4635,0.4631,0.463,0.4628,0.4629,0.4626,0.4621,0.4621,0.4628,0.4628,0.4628,0,0.4735,0.4721,0.4712,0.4708,0.4697,0.4692,0.4687,0.4679,0.4673,0.4665,0.4661,0.4652,0.4646,0.4639,0.4632,0.4633,0.462,0.462,0.4617,0.4617,0.4613,0.4614,0.4607,0.4611,0.4611,0.4611,0.4611,0,0.4726,0.4718,0.4711,0.4705,0.4697,0.4691,0.4682,0.4677,0.467,0.4663,0.4659,0.4652,0.4644,0.4636,0.4631,0.4621,0.4619,0.4615,0.4614,0.4616,0.4616,0.4611,0.4612,0.4611,0.4611,0.4611,0.4611,0,0.472,0.4715,0.4705,0.4696,0.4694,0.4688,0.468,0.4674,0.467,0.4661,0.4658,0.465,0.4641,0.4634,0.4622,0.4619,0.4609,0.4607,0.4612,0.4611,0.4608,0.4608,0.4598,0.4597,0.4602,0.4602,0.4602,0,0.4715,0.4709,0.47,0.4696,0.4692,0.4684,0.4679,0.4674,0.4668,0.4659,0.4655,0.4646,0.4638,0.4624,0.4617,0.4608,0.4606,0.4603,0.4604,0.4607,0.4606,0.4606,0.4606,0.4603,0.4603,0.4603,0.4603,0,0.4706,0.4704,0.4697,0.469,0.4684,0.4678,0.4671,0.4668,0.4661,0.4656,0.4647,0.4642,0.463,0.4622,0.4612,0.4607,0.4604,0.4603,0.4601,0.4602,0.4605,0.4604,0.4611,0.4602,0.4602,0.4603,0.4603,0.4603,0.47,0.4695,0.4688,0.4681,0.4676,0.4671,0.4665,0.4661,0.4654,0.4645,0.4642,0.4633,0.4626,0.4613,0.4608,0.4601,0.4601,0.4599,0.4598,0.4598,0.4598,0.4607,0.4599,0.4599,0.4599,0.4599,0.4599,0,0.469,0.4686,0.468,0.4672,0.4666,0.4666,0.4659,0.4654,0.4647,0.4641,0.4634,0.4625,0.4617,0.461,0.4601,0.4597,0.4596,0.4595,0.4595,0.4594,0.4599,0.4601,0.4597,0.4597,0.4597,0.4597,0.4597,0.4597,0.4684,0.4676,0.4674,0.4664,0.466,0.4652,0.4648,0.4643,0.4639,0.4629,0.4623,0.4619,0.4612,0.4604,0.4596,0.4595,0.4592,0.4592,0.4589,0.4593,0.4594,0.4594,0.4596,0.4591,0.4591,0.4585,0.4585,0.4585]},{"header":{"parameterUnit":"m.s-1","parameterCategory":1,"la1":30.2991,"la2":30.254,"lo1":-89.0895,"lo2":-89.0444,"dy":0.0017,"dx":0.0017,"nx":28,"ny":28,"refTime":"2024-12-03T09:00:00:Z","depth":0,"parameterNumber":3,"parameterNumberName":"V-component_of_WINDS"},"data":[0,0,0,0,0,0,0,0,0,0,0,0,0,0,0,0,0,0,0,0,0,0,0,0,0,0,0,0,0,0,0,0,0,0,0,0,0,0,0,0,0,0,0,0,0,0,0,0,0,0,0,0,0,0,0,0,0,0,-3.9484,-3.9485,0,-3.9586,-3.9587,-3.9589,-3.9554,-3.9552,-3.955,-3.9547,-3.9648,-3.9653,-3.9657,0,0,0,0,0,0,0,0,0,0,0,0,0,-3.9253,-3.9258,-3.9484,-3.9485,-3.9486,-3.9586,-3.9588,-3.9589,-3.9554,-3.9552,-3.9549,-3.9546,-3.9646,-3.9652,-3.9658,0,0,0,0,0,0,0,0,0,0,0,0,0,-3.9354,-3.9259,-3.9483,-3.9481,-3.9482,-3.9586,-3.9588,-3.9589,-3.9555,-3.9552,-3.9548,-3.9545,-3.9645,-3.9652,-3.9659,-3.977,0,0,-3.968,-3.9683,0,0,0,0,0,0,0,0,-3.9348,-3.9363,-3.948,-3.9481,-3.9483,-3.9554,-3.9543,-3.965,-3.9556,-3.9527,-3.9547,-3.9543,-3.9619,-3.9628,-3.9655,-3.9774,-3.9779,-3.9681,-3.9685,-3.9688,-3.969,0,0,0,0,0,0,0,-3.9342,-3.9358,-3.9524,-3.9482,-3.9483,-3.9473,-3.9484,-3.9563,-3.959,-3.9529,-3.9527,-3.954,-3.9619,-3.9648,-3.9657,-3.978,-3.9681,-3.9687,-3.9692,-3.9694,-3.9995,-3.9998,0,0,0,0,0,0,-3.9334,-3.9352,-3.9521,-3.9527,-3.9406,-3.948,-3.9492,-3.9534,-3.959,-3.9595,-3.9543,-3.9538,-3.9637,-3.9648,-3.966,-3.9793,-3.9688,-3.9695,-3.9699,-3.9991,-3.9996,-4.0,0,0,0,0,0,0,-3.933,-3.935,-3.9517,-3.9439,-3.946,-3.9488,-3.9535,-3.9538,-3.9567,-3.96,-3.9604,-3.9567,-3.9635,-3.965,-3.9743,-3.9796,-3.9698,-3.9705,-3.9987,-3.9993,-3.9998,-4.006,0,0,0,0,0,0,-3.9323,-3.9348,-3.9392,-3.9441,-3.9464,-3.9599,-3.9539,-3.9543,-3.958,-3.9575,-3.9624,-3.9629,-3.9634,-3.9732,-3.975,-3.9804,-3.971,-3.9982,-3.9989,-3.9996,-4.0054,-4.0067,-4.0079,0,0,0,0,0,-3.9315,-3.9404,-3.9394,-3.9415,-3.9519,-3.9602,-3.9615,-3.9621,-3.9584,-3.9627,-3.9649,-3.9627,-3.9788,-3.9742,-3.9762,-3.9819,-3.9979,-3.9987,-3.9995,-4.0048,-4.0065,-4.0079,0,0,0,0,0,0,-3.936,-3.9411,-3.94,-3.9508,-3.9551,-3.9596,-3.9651,-3.9638,-3.9691,-3.9684,-3.9687,-3.9698,-3.9793,-3.9815,-3.9764,-3.9929,-3.9878,-3.989,-3.9911,-3.9927,-3.994,-3.9932,-3.9716,0,0,0,0,0,-3.9382,-3.9447,-3.9488,-3.9579,-3.9601,-3.9623,-3.9659,-3.9659,-3.9703,-3.9721,-3.9749,-3.9791,-3.9851,-3.989,-3.9947,-4.0057,-4.0066,-4.0106,-4.0119,-4.0129,-4.0139,-4.0198,-4.0216,-4.0027,-4.0027,-4.0027,0,0,-3.9429,-3.9465,-3.9506,-3.9589,-3.9622,-3.9688,-3.9638,-3.9709,-3.9758,-3.9731,-3.9821,-3.9843,-3.989,-3.9992,-4.0038,-4.0013,-4.0194,-4.014,-4.0148,-4.0153,-4.0209,-4.0226,-4.0242,-4.0033,-4.0032,-4.0031,0,0,-3.9548,-3.9583,-3.9662,-3.9697,-3.9749,-3.9763,-3.9782,-3.9829,-3.9843,-3.9934,-3.9915,-3.9971,-4.0075,-4.0109,-4.014,-4.0273,-4.0255,-4.0291,-4.0357,-4.0415,-4.0429,-4.0443,-4.0489,-4.0506,-4.0302,-4.0302,-4.0302,0,-3.96,-3.9699,-3.9705,-3.9778,-3.9814,-3.9795,-3.9875,-3.9908,-3.9976,-4.0001,-3.9972,-4.0102,-4.0132,-4.0241,-4.0274,-4.03,-4.0321,-4.0285,-4.0427,-4.044,-4.0453,-4.0497,-4.0515,-4.0306,-4.0305,-4.0305,-4.0305,0,-3.9759,-3.9828,-3.9886,-3.9953,-3.9997,-4.0073,-4.0088,-4.0131,-4.0128,-4.0144,-4.0235,-4.0272,-4.0335,-4.0361,-4.0358,-4.047,-4.0453,-4.0426,-4.0375,-4.0475,-4.0516,-4.0533,-4.0312,-4.031,-4.0309,-4.0308,0,0,-3.9909,-3.9978,-3.9999,-4.0029,-4.0085,-4.0138,-4.0213,-4.0277,-4.0313,-4.036,-4.0422,-4.051,-4.0486,-4.0521,-4.0521,-4.0572,-4.0673,-4.0539,-4.054,-4.0562,-4.0798,-4.0817,-4.0837,-4.0662,-4.0666,-4.0668,-4.0794,0,-4.0032,-4.0165,-4.0172,-4.0292,-4.0355,-4.0338,-4.0403,-4.0444,-4.0461,-4.0516,-4.0534,-4.0596,-4.056,-4.0581,-4.063,-4.0651,-4.0721,-4.0642,-4.0718,-4.0721,-4.0706,-4.0859,-4.0879,-4.0996,-4.081,-4.0813,-4.0815,0,-4.0193,-4.0246,-4.0373,-4.042,-4.0447,-4.0506,-4.0564,-4.0618,-4.0663,-4.0672,-4.0712,-4.0705,-4.078,-4.0727,-4.0829,-4.0776,-4.0807,-4.0822,-4.0827,-4.0833,-4.0773,-4.0868,-4.1033,-4.1051,-4.084,-4.0838,-4.0837,0,-4.0288,-4.0392,-4.0481,-4.0507,-4.0564,-4.0606,-4.0631,-4.0673,-4.0711,-4.0762,-4.0786,-4.0845,-4.0877,-4.0922,-4.0931,-4.0891,-4.1033,-4.0981,-4.1041,-4.1041,-4.1071,-4.1069,-4.1243,-4.1093,-4.1093,-4.1093,-4.1092,0,-4.0424,-4.0502,-4.0525,-4.0579,-4.0666,-4.0673,-4.0758,-4.078,-4.0818,-4.0876,-4.0864,-4.0918,-4.0927,-4.0983,-4.099,-4.1073,-4.1088,-4.1096,-4.1097,-4.1097,-4.1096,-4.1117,-4.1109,-4.1097,-4.1096,-4.1096,-4.1095,0,-4.0545,-4.0563,-4.0659,-4.0706,-4.0719,-4.0781,-4.082,-4.0872,-4.0888,-4.0961,-4.0979,-4.1003,-4.1068,-4.1082,-4.1159,-4.1163,-4.1263,-4.1256,-4.1248,-4.1247,-4.1306,-4.13,-4.1499,-4.1525,-4.1359,-4.1361,-4.1362,0,-4.063,-4.069,-4.0743,-4.0782,-4.081,-4.0872,-4.0911,-4.092,-4.0961,-4.1017,-4.1062,-4.1126,-4.1177,-4.1282,-4.1306,-4.1364,-4.1358,-4.1424,-4.1367,-4.1365,-4.1358,-4.1354,-4.136,-4.1434,-4.1436,-4.1437,-4.1439,0,-4.0779,-4.0786,-4.0843,-4.0904,-4.0951,-4.0999,-4.1044,-4.1076,-4.1091,-4.1137,-4.1204,-4.1245,-4.1324,-4.1387,-4.1446,-4.147,-4.1457,-4.1457,-4.1474,-4.1474,-4.1466,-4.147,-4.1277,-4.1452,-4.145,-4.1449,-4.1449,-4.1448,-4.0884,-4.0937,-4.0983,-4.1047,-4.1082,-4.1125,-4.1176,-4.1199,-4.1256,-4.1322,-4.1323,-4.1396,-4.1439,-4.1517,-4.1545,-4.1601,-4.158,-4.1605,-4.1611,-4.1617,-4.1622,-4.1458,-4.1612,-4.1612,-4.1611,-4.1611,-4.1611,0,-4.1032,-4.1061,-4.112,-4.1185,-4.1235,-4.122,-4.127,-4.1312,-4.1377,-4.1419,-4.1471,-4.1548,-4.1609,-4.1638,-4.1699,-4.1738,-4.1733,-4.1753,-4.175,-4.1756,-4.1638,-4.1617,-4.1756,-4.1756,-4.1756,-4.1756,-4.1756,-4.1756,-4.1115,-4.1203,-4.1214,-4.1319,-4.1347,-4.142,-4.1449,-4.1488,-4.1522,-4.1609,-4.166,-4.1679,-4.1716,-4.1779,-4.1834,-4.1841,-4.1863,-4.1886,-4.189,-4.1779,-4.1764,-4.175,-4.173,-4.1891,-4.1891,-4.2003,-4.2004,-4.2005]}]]